CW8767 Weather Reports


time (UTC)temp
C
wind
direction
speed
KPH
gust
KPH
rain 1hr
cm
rain 24hr
cm
rain mn
cm
humidity
%
barometer
mb
20260502183204 13 331 1.6 8.0 0.00 0.00 0.00 54 1011.3
20260502182705 13 274 1.6 8.0 0.00 0.00 0.00 51 1011.3
20260502181704 13 23 3.2 4.8 0.00 0.00 0.00 52 1011.3
20260502180205 13 269 3.2 4.8 0.00 0.00 0.00 55 1011.3
20260502170205 12 272 0.0 0.0 0.00 0.00 0.00 60 1012.2
20260502164204 12 276 0.0 3.2 0.00 0.00 0.00 59 1012.2
20260502163704 12 277 1.6 9.7 0.00 0.00 0.00 58 1012.2
20260502163205 12 288 0.0 1.6 0.00 0.00 0.00 59 1012.2
20260502162204 12 278 1.6 4.8 0.00 0.00 0.00 60 1012.5
20260502161704 12 276 1.6 9.7 0.00 0.00 0.00 60 1012.5
20260502161204 12 303 1.6 4.8 0.00 0.00 0.00 59 1012.5
20260502160704 12 19 0.0 0.0 0.00 0.00 0.00 60 1012.5
20260502152204 11 47 1.6 4.8 0.00 0.00 0.00 64 1012.5
20260502151704 11 277 1.6 4.8 0.00 0.00 0.00 63 1012.5
20260502151204 11 22 1.6 8.0 0.00 0.00 0.00 64 1012.5
20260502150704 11 244 3.2 11.3 0.00 0.00 0.00 63 1012.5
20260502150205 11 41 1.6 4.8 0.00 0.00 0.00 63 1012.5
20260502130704 11 38 1.6 4.8 0.00 0.00 0.00 70 1011.7
20260502130204 11 272 1.6 4.8 0.00 0.00 0.00 73 1011.7
20260502123704 10 12 3.2 9.7 0.00 0.00 0.00 77 1011.7
20260502123205 10 322 1.6 4.8 0.00 0.00 0.00 77 1011.7
20260502122704 10 359 1.6 8.0 0.00 0.00 0.00 77 1011.3
20260502122204 10 38 0.0 4.8 0.00 0.00 0.00 78 1011.3
20260502121705 10 358 1.6 4.8 0.00 0.00 0.00 79 1011.3
20260502121204 10 290 3.2 8.0 0.00 0.00 0.00 79 1011.3
20260502120705 10 40 1.6 8.0 0.00 0.00 0.00 80 1011.3
20260502120204 10 7 1.6 4.8 0.00 0.00 0.00 82 1011.5
20260502115204 10 9 1.6 4.8 0.00 0.00 0.00 83 1011.5
20260502114204 10 2 0.0 4.8 0.00 0.00 0.00 85 1011.5
20260502113704 10 8 1.6 4.8 0.00 0.00 0.00 86 1011.5
20260502113204 10 350 0.0 4.8 0.00 0.00 0.00 86 1011.5
20260502112704 10 34 0.0 4.8 0.00 0.00 0.00 86 1011.5
20260502111204 10 332 0.0 0.0 0.00 0.00 0.00 87 1011.2
20260502110204 9 332 0.0 0.0 0.00 0.00 0.00 88 1011.2
20260502105204 9 284 0.0 0.0 0.00 0.00 0.00 90 1011.2
20260502104704 9 283 0.0 0.0 0.00 0.00 0.00 90 1011.2
20260502104204 9 283 0.0 0.0 0.00 0.00 0.00 91 1011.2
20260502103704 8 283 0.0 0.0 0.00 0.00 0.00 92 1011.2
20260502103204 8 283 0.0 0.0 0.00 0.00 0.00 93 1011.2
20260502102704 8 283 0.0 0.0 0.00 0.00 0.00 93 1011.1
20260502101704 8 283 0.0 0.0 0.00 0.00 0.00 93 1010.7
20260502101204 8 128 0.0 0.0 0.00 0.00 0.00 94 1010.7
20260502100704 8 129 0.0 0.0 0.00 0.00 0.00 94 1010.7
20260502100204 8 129 0.0 0.0 0.00 0.00 0.00 94 1010.7
20260502090704 8 129 0.0 0.0 0.00 0.00 0.00 93 1010.6
20260502090204 8 129 0.0 0.0 0.00 0.00 0.00 92 1010.5
20260502071204 10 177 0.0 0.0 0.00 0.00 0.00 87 1010.2
20260502070704 10 177 0.0 0.0 0.00 0.00 0.00 87 1010.2
20260502070204 10 177 0.0 0.0 0.00 0.00 0.00 87 1010.2
20260502065704 10 177 0.0 0.0 0.00 0.00 0.00 86 1010.2
20260502065204 10 177 0.0 0.0 0.00 0.00 0.00 86 1010.2
20260502064704 10 177 0.0 0.0 0.00 0.00 0.00 86 1010.2
20260502064204 10 177 0.0 0.0 0.00 0.00 0.00 85 1010.2
20260502063704 10 177 0.0 0.0 0.00 0.00 0.00 85 1010.2
20260502063203 11 177 0.0 0.0 0.00 0.00 0.00 85 1010.2
20260502062703 11 177 0.0 0.0 0.00 0.00 0.00 84 1010.6
20260502061704 11 177 0.0 0.0 0.00 0.00 0.00 84 1010.6
20260502061203 11 177 0.0 0.0 0.00 0.00 0.00 84 1010.6
20260502060703 11 149 0.0 0.0 0.00 0.00 0.00 84 1010.6
20260502060203 11 99 0.0 0.0 0.00 0.00 0.00 84 1010.6
20260502055204 11 99 0.0 0.0 0.00 0.00 0.00 83 1010.6
20260502054704 11 99 0.0 0.0 0.00 0.00 0.00 83 1010.6
20260502054204 11 99 0.0 0.0 0.00 0.00 0.00 83 1010.6
20260502053204 11 153 0.0 0.0 0.00 0.00 0.00 82 1010.6
20260502052704 11 153 0.0 0.0 0.00 0.00 0.00 82 1010.6
20260502052203 11 153 0.0 0.0 0.00 0.00 0.00 81 1010.6
20260502051703 11 153 0.0 0.0 0.00 0.00 0.00 81 1010.6
20260502051204 12 153 0.0 0.0 0.00 0.00 0.00 80 1010.6
20260502050704 12 153 0.0 0.0 0.00 0.00 0.00 80 1010.6
20260502050204 12 153 0.0 0.0 0.00 0.00 0.00 80 1010.6
20260502045204 12 153 0.0 0.0 0.00 0.00 0.00 79 1010.6
20260502044704 12 153 0.0 0.0 0.00 0.00 0.00 79 1010.7
20260502044203 12 153 0.0 0.0 0.00 0.00 0.00 79 1010.7
20260502043704 12 153 0.0 4.8 0.00 0.00 0.00 78 1010.7
20260502043203 12 44 0.0 0.0 0.00 0.00 0.00 78 1010.7
20260502042703 12 44 0.0 0.0 0.00 0.00 0.00 78 1010.7
20260502042204 12 44 0.0 0.0 0.00 0.00 0.00 78 1010.7
20260502041704 12 44 0.0 1.6 0.00 0.00 0.00 77 1010.7
20260502041203 12 243 0.0 0.0 0.00 0.00 0.00 77 1010.7
20260502040704 12 243 0.0 0.0 0.00 0.00 0.00 77 1010.7
20260502040203 12 243 0.0 0.0 0.00 0.00 0.00 76 1010.7
20260502035704 12 243 0.0 0.0 0.00 0.00 0.00 76 1010.7
20260502035203 12 243 0.0 0.0 0.00 0.00 0.00 76 1010.7
20260502034703 12 243 0.0 0.0 0.00 0.00 0.00 76 1010.7
20260502034204 13 243 0.0 0.0 0.00 0.00 0.00 75 1010.0
20260502033704 13 243 0.0 0.0 0.00 0.00 0.00 75 1010.0
20260502032704 13 243 0.0 0.0 0.00 0.00 0.00 75 1010.0
20260502032204 13 242 0.0 0.0 0.00 0.00 0.00 74 1010.0
20260502031704 13 242 0.0 1.6 0.00 0.00 0.00 74 1010.0
20260502030204 13 43 0.0 1.6 0.00 0.00 0.00 73 1010.0
20260502025704 13 300 0.0 0.0 0.00 0.00 0.00 73 1010.0
20260502025203 13 300 0.0 0.0 0.00 0.00 0.00 72 1010.2
20260502024704 13 300 0.0 0.0 0.00 0.00 0.00 72 1010.2
20260502024204 13 300 0.0 3.2 0.00 0.00 0.00 72 1010.2
20260502023203 13 10 0.0 0.0 0.00 0.00 0.00 71 1010.1
20260502022704 13 10 0.0 0.0 0.00 0.00 0.00 71 1010.1
20260502022204 13 10 0.0 0.0 0.00 0.00 0.00 71 1010.1
20260502021703 13 10 0.0 0.0 0.00 0.00 0.00 70 1010.1
20260502021204 13 261 0.0 0.0 0.00 0.00 0.00 69 1010.1
20260502020703 13 261 0.0 0.0 0.00 0.00 0.00 69 1010.1
20260502015704 13 261 0.0 0.0 0.00 0.00 0.00 68 1010.1
20260502015203 12 261 0.0 0.0 0.00 0.00 0.00 68 1009.7
20260502014703 12 261 0.0 0.0 0.00 0.00 0.00 67 1009.7
20260502014204 12 261 0.0 0.0 0.00 0.00 0.00 66 1009.7
20260502013704 13 261 0.0 0.0 0.00 0.00 0.00 66 1009.7
20260502013204 13 261 0.0 0.0 0.00 0.00 0.00 65 1009.7
20260502012704 13 261 0.0 0.0 0.00 0.00 0.00 65 1009.7
20260502012203 13 261 0.0 0.0 0.00 0.00 0.00 64 1009.7
20260502011703 13 261 0.0 0.0 0.00 0.00 0.00 63 1009.7
20260502011204 13 261 0.0 0.0 0.00 0.00 0.00 61 1009.7
20260502010704 13 261 0.0 0.0 0.00 0.00 0.00 60 1009.7
20260502010204 13 261 0.0 0.0 0.00 0.00 0.00 59 1009.7
20260502005704 13 261 0.0 0.0 0.00 0.00 0.00 59 1009.7
20260502005203 14 261 0.0 0.0 0.00 0.00 0.00 58 1008.9
20260502004703 14 261 0.0 0.0 0.00 0.00 0.00 57 1008.9
20260502004204 14 261 0.0 0.0 0.00 0.00 0.00 56 1008.9
20260502003704 15 261 0.0 0.0 0.00 0.00 0.00 55 1008.9
20260502003204 15 261 0.0 0.0 0.00 0.00 0.00 55 1008.9
20260502002704 15 261 0.0 0.0 0.00 0.00 0.00 54 1008.9
20260502001704 15 261 0.0 0.0 0.00 0.00 0.00 53 1008.9
20260502001205 15 261 0.0 0.0 0.00 0.00 0.00 53 1008.9
20260502000205 16 261 0.0 0.0 0.00 0.00 0.00 52 1008.9
20260501235705 16 270 0.0 0.0 0.00 0.00 0.00 54 1008.9
20260501235205 16 279 0.0 0.0 0.00 0.00 0.00 53 1008.9
20260501234705 16 279 0.0 0.0 0.00 0.00 0.00 52 1008.9
20260501234205 16 279 0.0 0.0 0.00 0.00 0.00 52 1008.9
20260501233705 16 279 0.0 0.0 0.00 0.00 0.00 51 1008.9
20260501233205 17 276 0.0 1.6 0.00 0.00 0.00 50 1008.9
20260501232705 17 117 0.0 0.0 0.00 0.00 0.00 50 1008.9
20260501232204 17 117 0.0 0.0 0.00 0.00 0.00 50 1008.9
20260501231705 17 121 0.0 0.0 0.00 0.00 0.00 49 1008.9
20260501230704 17 131 0.0 0.0 0.00 0.00 0.00 47 1009.0
20260501230205 17 134 0.0 1.6 0.00 0.00 0.00 46 1009.0
20260501225705 17 80 0.0 9.7 0.00 0.00 0.00 46 1009.0
20260501225204 17 181 0.0 0.0 0.00 0.00 0.00 46 1009.0
20260501224205 17 97 0.0 0.0 0.00 0.00 0.00 45 1009.1
20260501223204 17 327 0.0 0.0 0.00 0.00 0.00 46 1009.1
20260501222204 18 302 1.6 4.8 0.00 0.00 0.00 46 1009.1
20260501220705 18 355 0.0 1.6 0.00 0.00 0.00 45 1009.2
20260501220204 18 53 0.0 0.0 0.00 0.00 0.00 46 1009.3
20260501215704 18 355 0.0 1.6 0.00 0.00 0.00 45 1009.3
20260501214705 18 64 0.0 4.8 0.00 0.00 0.00 45 1009.3
20260501214205 18 5 0.0 3.2 0.00 0.00 0.00 45 1009.3
20260501213705 18 103 0.0 1.6 0.00 0.00 0.00 45 1009.3
20260501212704 18 198 0.0 3.2 0.00 0.00 0.00 44 1009.3
20260501212205 18 152 0.0 1.6 0.00 0.00 0.00 43 1009.3
20260501211204 18 244 0.0 0.0 0.00 0.00 0.00 46 1009.4
20260501210704 18 65 1.6 4.8 0.00 0.00 0.00 44 1009.3
20260501210205 18 254 0.0 8.0 0.00 0.00 0.00 45 1009.8
20260501205705 18 66 0.0 1.6 0.00 0.00 0.00 44 1009.8
20260501205205 18 284 0.0 1.6 0.00 0.00 0.00 44 1009.8
20260501204705 18 84 0.0 8.0 0.00 0.00 0.00 43 1009.8
20260501204204 18 55 0.0 4.8 0.00 0.00 0.00 44 1009.8
20260501203205 18 234 1.6 4.8 0.00 0.00 0.00 42 1009.8
20260501202205 18 91 0.0 4.8 0.00 0.00 0.00 43 1009.8
20260501201705 18 127 1.6 8.0 0.00 0.00 0.00 44 1010.5
20260501201205 18 87 0.0 3.2 0.00 0.00 0.00 48 1010.5
20260501200705 18 203 1.6 8.0 0.00 0.00 0.00 46 1010.5
20260501200204 18 105 1.6 4.8 0.00 0.00 0.00 44 1010.5
20260501195704 18 293 0.0 1.6 0.00 0.00 0.00 45 1010.5
20260501195205 18 116 0.0 8.0 0.00 0.00 0.00 45 1010.5
20260501194704 18 25 0.0 4.8 0.00 0.00 0.00 46 1010.5
20260501194205 18 106 1.6 4.8 0.00 0.00 0.00 42 1010.5
20260501193704 18 101 0.0 4.8 0.00 0.00 0.00 44 1010.5
20260501193204 18 105 3.2 9.7 0.00 0.00 0.00 43 1010.5
20260501192705 18 146 1.6 4.8 0.00 0.00 0.00 43 1012.0
20260501192204 18 70 0.0 8.0 0.00 0.00 0.00 44 1012.0
20260501191704 18 154 1.6 9.7 0.00 0.00 0.00 43 1012.0
20260501190704 17 314 1.6 3.2 0.00 0.00 0.00 45 1012.0
20260501190205 17 122 1.6 4.8 0.00 0.00 0.00 45 1012.0
20260501185705 17 91 0.0 4.8 0.00 0.00 0.00 45 1012.0
20260501185205 17 278 1.6 4.8 0.00 0.00 0.00 48 1012.0
20260501184705 17 62 0.0 4.8 0.00 0.00 0.00 45 1012.0
20260501184205 17 104 0.0 1.6 0.00 0.00 0.00 49 1012.0
20260501183705 17 230 0.0 4.8 0.00 0.00 0.00 47 1012.0